^^
Your Local Weather - Clay, NY Station Historical Data
Daily Summary for February 21, 2018 Units:  Metric    English   Both
« Previous Day
Next Day »
Daily Weekly Monthly Yearly Custom
  High: Low: Average:
Temperature: 22.8 °C 0.8 °C 10.5 °C
Dew Point: 13.2 °C -2.1 °C 6.1 °C
Humidity: 90% 52% 75%
Wind Speed: 12.9km/h 0km/h 5.5km/h
Wind Gust: 24.1km/h - -
Wind- - WSW
Pressure: 1035.1 hPa 1016.1 hPa -
Precipitation: 0.51 mm    
Historical Graphs
 
 
Tabular Data for February 21, 2018
Time Temperature Dew Point Pressure Wind Wind Speed Wind Gust Humidity Rainfall Rate (Hourly) solar
00:04 18 °C 12.2 °C 1018.5 hPa SW 4.8 km/h 4.8 km/h 69% 0 mm 0 W/m2
00:10 18.1 °C 12.3 °C 1018.5 hPa SSW 4.8 km/h 4.8 km/h 69% 0 mm 0 W/m2
00:16 18.2 °C 12.2 °C 1018.5 hPa SSW 6.4 km/h 11.3 km/h 68% 0 mm 0 W/m2
00:22 18 °C 12 °C 1018.5 hPa South 6.4 km/h 6.4 km/h 68% 0 mm 0 W/m2
00:28 17.9 °C 12.1 °C 1018.5 hPa South 4.8 km/h 8 km/h 69% 0 mm 0 W/m2
00:34 17.8 °C 12.1 °C 1018.5 hPa SSW 4.8 km/h 4.8 km/h 69% 0 mm 0 W/m2
00:40 17.7 °C 12.2 °C 1018.8 hPa South 4.8 km/h 4.8 km/h 70% 0 mm 0 W/m2
00:46 17.7 °C 12.2 °C 1018.8 hPa SW 4.8 km/h 9.7 km/h 70% 0 mm 0 W/m2
00:52 17.6 °C 12.1 °C 1018.8 hPa SW 4.8 km/h 4.8 km/h 70% 0 mm 0 W/m2
00:58 17.7 °C 12.1 °C 1018.8 hPa SSW 4.8 km/h 4.8 km/h 70% 0 mm 0 W/m2
01:04 17.6 °C 11.8 °C 1018.8 hPa SSW 4.8 km/h 4.8 km/h 69% 0 mm 0 W/m2
01:10 17.5 °C 11.9 °C 1018.8 hPa SSW 3.2 km/h 3.2 km/h 70% 0 mm 0 W/m2
01:16 17.3 °C 11.8 °C 1018.8 hPa SSW 1.6 km/h 3.2 km/h 70% 0 mm 0 W/m2
01:22 17.1 °C 11.8 °C 1018.8 hPa SSW 1.6 km/h 1.6 km/h 71% 0 mm 0 W/m2
01:28 17.1 °C 11.8 °C 1018.8 hPa SSE 1.6 km/h 8 km/h 71% 0 mm 0 W/m2
01:34 17.1 °C 11.8 °C 1018.8 hPa South 3.2 km/h 3.2 km/h 71% 0 mm 0 W/m2
01:40 16.8 °C 11.5 °C 1018.8 hPa SSW 1.6 km/h 3.2 km/h 71% 0 mm 0 W/m2
01:46 16.7 °C 11.7 °C 1018.8 hPa South 3.2 km/h 6.4 km/h 72% 0 mm 0 W/m2
01:52 16.8 °C 11.8 °C 1018.5 hPa SSW 4.8 km/h 4.8 km/h 72% 0 mm 0 W/m2
01:58 16.9 °C 11.7 °C 1018.5 hPa SSW 4.8 km/h 4.8 km/h 71% 0 mm 0 W/m2
02:04 17.2 °C 11.9 °C 1018.5 hPa South 4.8 km/h 6.4 km/h 71% 0 mm 0 W/m2
02:10 17.4 °C 11.9 °C 1018.5 hPa SSW 6.4 km/h 6.4 km/h 70% 0 mm 0 W/m2
02:16 17.5 °C 11.7 °C 1018.2 hPa SSE 6.4 km/h 6.4 km/h 69% 0 mm 0 W/m2
02:22 17.4 °C 11.9 °C 1018.5 hPa WSW 4.8 km/h 8 km/h 70% 0 mm 0 W/m2
02:28 17.8 °C 12 °C 1018.2 hPa SW 6.4 km/h 8 km/h 69% 0 mm 0 W/m2
02:34 17.9 °C 11.9 °C 1018.2 hPa SSW 6.4 km/h 6.4 km/h 68% 0 mm 0 W/m2
02:40 17.9 °C 11.9 °C 1018.2 hPa SSW 4.8 km/h 6.4 km/h 68% 0 mm 0 W/m2
02:46 17.8 °C 11.8 °C 1018.2 hPa SSW 4.8 km/h 8 km/h 68% 0 mm 0 W/m2
02:52 17.7 °C 11.9 °C 1018.2 hPa SSW 3.2 km/h 4.8 km/h 69% 0 mm 0 W/m2
02:58 17.4 °C 11.7 °C 1018.2 hPa SSW 3.2 km/h 4.8 km/h 69% 0 mm 0 W/m2
03:04 17.3 °C 11.8 °C 1018.2 hPa SSE 3.2 km/h 3.2 km/h 70% 0 mm 0 W/m2
03:10 17.3 °C 11.8 °C 1018.2 hPa SSE 3.2 km/h 6.4 km/h 70% 0 mm 0 W/m2
03:16 17.2 °C 11.7 °C 1018.2 hPa South 3.2 km/h 6.4 km/h 70% 0 mm 0 W/m2
03:22 17.3 °C 11.8 °C 1018.2 hPa SSW 4.8 km/h 6.4 km/h 70% 0 mm 0 W/m2
03:28 17.5 °C 11.7 °C 1017.8 hPa South 6.4 km/h 6.4 km/h 69% 0 mm 0 W/m2
03:34 17.4 °C 11.5 °C 1017.8 hPa South 6.4 km/h 6.4 km/h 68% 0 mm 0 W/m2
03:40 17.6 °C 11.6 °C 1017.8 hPa South 4.8 km/h 4.8 km/h 68% 0 mm 0 W/m2
03:46 17.4 °C 11.4 °C 1017.8 hPa South 6.4 km/h 9.7 km/h 68% 0 mm 0 W/m2
03:52 17.3 °C 11.4 °C 1017.5 hPa South 4.8 km/h 6.4 km/h 68% 0 mm 0 W/m2
03:58 17.3 °C 11.6 °C 1017.5 hPa SSW 3.2 km/h 8 km/h 69% 0 mm 0 W/m2
04:04 17.4 °C 11.4 °C 1017.5 hPa SSE 4.8 km/h 4.8 km/h 68% 0 mm 0 W/m2
04:10 17.6 °C 11.6 °C 1017.5 hPa SSE 6.4 km/h 8 km/h 68% 0 mm 0 W/m2
04:16 17.6 °C 11.6 °C 1017.5 hPa South 6.4 km/h 8 km/h 68% 0 mm 0 W/m2
04:24 17.3 °C 11.3 °C 1017.5 hPa South 4.8 km/h 8 km/h 68% 0 mm 0 W/m2
04:30 17.4 °C 11.4 °C 1017.5 hPa South 4.8 km/h 6.4 km/h 68% 0 mm 0 W/m2
04:36 17.3 °C 11.3 °C 1017.5 hPa SW 4.8 km/h 8 km/h 68% 0 mm 0 W/m2
04:42 17.2 °C 11.2 °C 1017.5 hPa SSW 4.8 km/h 8 km/h 68% 0 mm 0 W/m2
04:48 17.2 °C 11.5 °C 1017.5 hPa SSW 4.8 km/h 9.7 km/h 69% 0 mm 0 W/m2
04:54 17.1 °C 11.2 °C 1017.5 hPa South 4.8 km/h 4.8 km/h 68% 0 mm 0 W/m2
05:00 17.1 °C 11.3 °C 1017.5 hPa South 4.8 km/h 4.8 km/h 69% 0 mm 0 W/m2
05:06 17.1 °C 11.4 °C 1017.5 hPa SSW 4.8 km/h 8 km/h 69% 0 mm 0 W/m2
05:12 17.1 °C 11.3 °C 1017.5 hPa WSW 4.8 km/h 4.8 km/h 69% 0 mm 0 W/m2
05:18 16.9 °C 11.2 °C 1017.5 hPa SSE 3.2 km/h 8 km/h 69% 0 mm 0 W/m2
05:24 17.2 °C 11.4 °C 1017.5 hPa South 6.4 km/h 8 km/h 69% 0 mm 0 W/m2
05:30 17.2 °C 11.3 °C 1017.5 hPa South 6.4 km/h 6.4 km/h 68% 0 mm 0 W/m2
05:36 16.9 °C 11.2 °C 1017.5 hPa SSE 6.4 km/h 14.5 km/h 69% 0 mm 0 W/m2
05:42 16.9 °C 11.2 °C 1017.8 hPa West 8 km/h 8 km/h 69% 0 mm 0 W/m2
05:48 16.8 °C 11.3 °C 1017.5 hPa South 4.8 km/h 9.7 km/h 70% 0 mm 0 W/m2
05:54 16.9 °C 11.2 °C 1017.5 hPa SW 6.4 km/h 6.4 km/h 69% 0 mm 0 W/m2
06:00 16.7 °C 11.2 °C 1017.5 hPa South 4.8 km/h 6.4 km/h 70% 0 mm 0 W/m2
06:06 16.6 °C 11.1 °C 1017.5 hPa South 4.8 km/h 6.4 km/h 70% 0 mm 0 W/m2
06:12 16.4 °C 11.2 °C 1017.5 hPa South 4.8 km/h 4.8 km/h 71% 0 mm 0 W/m2
06:18 16.5 °C 11.2 °C 1017.5 hPa South 4.8 km/h 6.4 km/h 71% 0 mm 0 W/m2
06:24 16.4 °C 11.2 °C 1017.5 hPa South 4.8 km/h 6.4 km/h 71% 0 mm 0 W/m2
06:30 16.3 °C 11.1 °C 1017.5 hPa South 4.8 km/h 4.8 km/h 71% 0 mm 0 W/m2
06:36 16.4 °C 11.1 °C 1017.5 hPa South 4.8 km/h 6.4 km/h 71% 0 mm 0 W/m2
06:42 16.2 °C 10.9 °C 1017.2 hPa South 3.2 km/h 4.8 km/h 71% 0 mm 0 W/m2
06:48 16.1 °C 11.1 °C 1017.2 hPa SSE 3.2 km/h 4.8 km/h 72% 0 mm 0 W/m2
06:54 16.1 °C 11.1 °C 1017.2 hPa South 4.8 km/h 8 km/h 72% 0 mm 0 W/m2
07:00 16.3 °C 11.1 °C 1017.2 hPa SSW 3.2 km/h 3.2 km/h 71% 0 mm 7 W/m2
07:06 16.4 °C 11.2 °C 1017.2 hPa SSW 3.2 km/h 3.2 km/h 71% 0 mm 9 W/m2
07:12 16.4 °C 10.9 °C 1017.2 hPa South 3.2 km/h 4.8 km/h 70% 0 mm 11 W/m2
07:18 16.6 °C 11.1 °C 1017.2 hPa South 3.2 km/h 6.4 km/h 70% 0 mm 18 W/m2
07:24 16.7 °C 11 °C 1017.5 hPa SSW 4.8 km/h 4.8 km/h 69% 0 mm 18 W/m2
07:30 16.7 °C 11 °C 1017.2 hPa South 3.2 km/h 3.2 km/h 69% 0 mm 26 W/m2
07:36 16.8 °C 11.1 °C 1017.2 hPa SSW 3.2 km/h 4.8 km/h 69% 0 mm 30 W/m2
07:42 17.2 °C 11.2 °C 1017.2 hPa SW 4.8 km/h 4.8 km/h 68% 0 mm 42 W/m2
07:48 17.6 °C 11.3 °C 1017.2 hPa SW 4.8 km/h 6.4 km/h 67% 0 mm 39 W/m2
07:54 17.7 °C 11.2 °C 1016.8 hPa South 4.8 km/h 8 km/h 66% 0 mm 47 W/m2
08:00 17.9 °C 11.4 °C 1016.8 hPa SW 3.2 km/h 8 km/h 66% 0 mm 76 W/m2
08:06 18.3 °C 11.3 °C 1016.8 hPa SW 4.8 km/h 8 km/h 64% 0 mm 104 W/m2
08:12 18.7 °C 11.5 °C 1016.8 hPa SW 4.8 km/h 8 km/h 63% 0 mm 95 W/m2
08:18 19.2 °C 11.7 °C 1016.8 hPa SSE 8 km/h 8 km/h 62% 0 mm 104 W/m2
08:24 19.3 °C 11.6 °C 1016.8 hPa SSW 8 km/h 8 km/h 61% 0 mm 102 W/m2
08:30 19.4 °C 11.4 °C 1016.1 hPa South 9.7 km/h 9.7 km/h 60% 0 mm 135 W/m2
08:36 19.6 °C 11.6 °C 1016.5 hPa SW 9.7 km/h 17.7 km/h 60% 0 mm 181 W/m2
08:42 19.8 °C 11.8 °C 1016.5 hPa South 9.7 km/h 12.9 km/h 60% 0 mm 181 W/m2
08:48 20.1 °C 11.6 °C 1016.5 hPa WSW 9.7 km/h 12.9 km/h 58% 0 mm 207 W/m2
08:54 20.3 °C 11.8 °C 1016.5 hPa SW 11.3 km/h 16.1 km/h 58% 0 mm 125 W/m2
09:00 20.4 °C 11.6 °C 1016.8 hPa SSE 12.9 km/h 12.9 km/h 57% 0 mm 88 W/m2
09:06 20.3 °C 11.8 °C 1016.5 hPa South 12.9 km/h 16.1 km/h 58% 0 mm 83 W/m2
09:12 20.1 °C 11.8 °C 1016.5 hPa SSW 11.3 km/h 11.3 km/h 59% 0 mm 148 W/m2
09:18 20.1 °C 11.8 °C 1016.5 hPa SW 9.7 km/h 11.3 km/h 59% 0 mm 160 W/m2
09:24 20.3 °C 11.7 °C 1016.5 hPa West 9.7 km/h 11.3 km/h 58% 0 mm 125 W/m2
09:30 20.4 °C 11.8 °C 1016.5 hPa SSE 11.3 km/h 12.9 km/h 58% 0 mm 162 W/m2
09:36 20.6 °C 12 °C 1016.5 hPa WSW 9.7 km/h 14.5 km/h 58% 0 mm 197 W/m2
09:42 20.8 °C 11.9 °C 1016.5 hPa SW 9.7 km/h 9.7 km/h 57% 0 mm 188 W/m2
09:48 20.9 °C 12.1 °C 1016.5 hPa SW 9.7 km/h 11.3 km/h 57% 0 mm 253 W/m2
09:54 21.4 °C 12.8 °C 1016.5 hPa SW 8 km/h 9.7 km/h 58% 0 mm 454 W/m2
10:00 21.9 °C 12.7 °C 1016.5 hPa South 6.4 km/h 16.1 km/h 56% 0 mm 316 W/m2
10:06 21.8 °C 12.4 °C 1016.1 hPa SSW 9.7 km/h 16.1 km/h 55% 0 mm 425 W/m2
10:12 22.3 °C 13.1 °C 1016.1 hPa SW 8 km/h 9.7 km/h 56% 0 mm 563 W/m2
10:18 22.4 °C 12.6 °C 1016.1 hPa West 8 km/h 16.1 km/h 54% 0 mm 367 W/m2
10:24 22.4 °C 12.6 °C 1016.1 hPa SSW 9.7 km/h 9.7 km/h 54% 0 mm 573 W/m2
10:30 22.8 °C 12.7 °C 1016.1 hPa SW 11.3 km/h 16.1 km/h 53% 0 mm 721 W/m2
10:36 22.8 °C 12.4 °C 1016.5 hPa WSW 12.9 km/h 24.1 km/h 52% 0 mm 700 W/m2
10:42 22.7 °C 13.2 °C 1016.5 hPa SW 12.9 km/h 14.5 km/h 55% 0 mm 708 W/m2
10:48 22.3 °C 12.3 °C 1017.2 hPa WNW 11.3 km/h 14.5 km/h 53% 0 mm 125 W/m2
10:54 20.2 °C 11.4 °C 1017.5 hPa NW 11.3 km/h 14.5 km/h 57% 0 mm 251 W/m2
11:00 18.9 °C 11.4 °C 1017.8 hPa WNW 9.7 km/h 11.3 km/h 62% 0 mm 422 W/m2
11:06 17.9 °C 11.1 °C 1018.2 hPa NW 9.7 km/h 14.5 km/h 64% 0 mm 237 W/m2
11:12 16.9 °C 10.8 °C 1018.5 hPa NW 9.7 km/h 11.3 km/h 67% 0 mm 121 W/m2
11:18 16 °C 10.6 °C 1018.8 hPa West 11.3 km/h 11.3 km/h 70% 0 mm 53 W/m2
11:24 15.4 °C 10.4 °C 1019.2 hPa WNW 11.3 km/h 22.5 km/h 72% 0 mm 37 W/m2
11:30 14.7 °C 10.6 °C 1019.5 hPa WNW 11.3 km/h 11.3 km/h 76% 0 mm 46 W/m2
11:36 13.8 °C 9.9 °C 1019.5 hPa WNW 11.3 km/h 14.5 km/h 77% 0 mm 49 W/m2
11:42 12.2 °C 8.8 °C 1020.2 hPa NW 12.9 km/h 12.9 km/h 80% 0 mm 51 W/m2
11:48 10.7 °C 7.6 °C 1020.5 hPa NNW 12.9 km/h 19.3 km/h 81% 0 mm 40 W/m2
11:54 9.7 °C 6.9 °C 1020.9 hPa WNW 11.3 km/h 12.9 km/h 83% 0 mm 26 W/m2
12:00 9.1 °C 6.7 °C 1021.2 hPa WNW 9.7 km/h 9.7 km/h 85% 0 mm 25 W/m2
12:06 8.7 °C 6.4 °C 1021.6 hPa NW 8 km/h 9.7 km/h 86% 0 mm 25 W/m2
12:12 8.3 °C 6.2 °C 1021.6 hPa WNW 6.4 km/h 12.9 km/h 87% 0 mm 18 W/m2
12:18 7.9 °C 5.9 °C 1021.9 hPa WNW 8 km/h 16.1 km/h 87% 0 mm 16 W/m2
12:24 7.6 °C 5.7 °C 1022.2 hPa West 6.4 km/h 8 km/h 88% 0 mm 28 W/m2
12:30 7.3 °C 5.5 °C 1022.2 hPa NW 8 km/h 9.7 km/h 88% 0 mm 28 W/m2
12:36 7.1 °C 5.3 °C 1022.6 hPa WNW 8 km/h 11.3 km/h 88% 0 mm 28 W/m2
12:42 6.9 °C 5.2 °C 1022.6 hPa WNW 6.4 km/h 8 km/h 89% 0 mm 21 W/m2
12:48 6.7 °C 5 °C 1023.2 hPa WNW 4.8 km/h 8 km/h 89% 0 mm 21 W/m2
12:54 6.5 °C 4.8 °C 1023.2 hPa WNW 4.8 km/h 8 km/h 89% 0 mm 16 W/m2
13:00 6.2 °C 4.6 °C 1023.2 hPa WNW 6.4 km/h 11.3 km/h 89% 0 mm 25 W/m2
13:06 6.1 °C 4.4 °C 1023.6 hPa WNW 6.4 km/h 11.3 km/h 89% 0 mm 30 W/m2
13:12 5.9 °C 4.3 °C 1023.6 hPa NW 6.4 km/h 6.4 km/h 89% 0 mm 28 W/m2
13:18 5.9 °C 4.4 °C 1023.9 hPa WNW 4.8 km/h 6.4 km/h 90% 0 mm 39 W/m2
13:24 5.8 °C 4.3 °C 1023.9 hPa NW 4.8 km/h 8 km/h 90% 0 mm 35 W/m2
13:30 5.7 °C 4.2 °C 1024.3 hPa NW 4.8 km/h 4.8 km/h 90% 0 mm 51 W/m2
13:36 5.6 °C 4.1 °C 1024.6 hPa NW 3.2 km/h 4.8 km/h 90% 0 mm 40 W/m2
13:42 5.6 °C 4.1 °C 1024.6 hPa NW 3.2 km/h 4.8 km/h 90% 0 mm 47 W/m2
13:48 5.5 °C 4 °C 1024.6 hPa NW 1.6 km/h 4.8 km/h 90% 0 mm 63 W/m2
13:56 5.4 °C 3.9 °C 1024.9 hPa WNW 3.2 km/h 4.8 km/h 90% 0 mm 49 W/m2
14:02 5.4 °C 3.9 °C 1025.3 hPa West 3.2 km/h 4.8 km/h 90% 0 mm 44 W/m2
14:08 5.3 °C 3.8 °C 1025.6 hPa NW 4.8 km/h 4.8 km/h 90% 0 mm 53 W/m2
14:14 5.2 °C 3.7 °C 1026 hPa NW 4.8 km/h 12.9 km/h 90% 0 mm 58 W/m2
14:20 5 °C 3.5 °C 1026 hPa West 6.4 km/h 6.4 km/h 90% 0 mm 58 W/m2
14:26 4.8 °C 3.3 °C 1026 hPa WNW 8 km/h 9.7 km/h 90% 0 mm 81 W/m2
14:32 4.7 °C 3.2 °C 1026.3 hPa NNW 8 km/h 8 km/h 90% 0 mm 58 W/m2
14:38 4.7 °C 3.2 °C 1026.6 hPa NW 6.4 km/h 8 km/h 90% 0 mm 40 W/m2
14:44 4.4 °C 2.7 °C 1026.6 hPa NW 6.4 km/h 8 km/h 89% 0 mm 39 W/m2
14:50 4.2 °C 2.6 °C 1027 hPa WNW 4.8 km/h 4.8 km/h 89% 0 mm 49 W/m2
14:56 4.2 °C 2.6 °C 1026.6 hPa NW 3.2 km/h 4.8 km/h 89% 0 mm 72 W/m2
15:02 4.1 °C 2.4 °C 1027.3 hPa West 6.4 km/h 14.5 km/h 89% 0 mm 62 W/m2
15:08 4 °C 2.2 °C 1027 hPa WNW 8 km/h 14.5 km/h 88% 0 mm 49 W/m2
15:14 4.1 °C 2.1 °C 1027.3 hPa West 6.4 km/h 8 km/h 87% 0 mm 83 W/m2
15:20 4.1 °C 2.1 °C 1027.3 hPa West 6.4 km/h 8 km/h 87% 0 mm 47 W/m2
15:26 4 °C 1.9 °C 1027.7 hPa NW 8 km/h 14.5 km/h 86% 0 mm 46 W/m2
15:32 3.9 °C 1.6 °C 1028 hPa NW 9.7 km/h 9.7 km/h 85% 0 mm 53 W/m2
15:38 3.8 °C 1.4 °C 1028.3 hPa WNW 8 km/h 9.7 km/h 84% 0 mm 56 W/m2
15:44 3.8 °C 1.4 °C 1028.3 hPa WNW 6.4 km/h 9.7 km/h 84% 0 mm 51 W/m2
15:50 3.6 °C 1 °C 1028.7 hPa NNW 9.7 km/h 16.1 km/h 83% 0 mm 47 W/m2
15:56 3.4 °C 0.6 °C 1028.7 hPa NW 11.3 km/h 16.1 km/h 82% 0 mm 46 W/m2
16:02 3.3 °C 0.5 °C 1029 hPa WNW 8 km/h 11.3 km/h 82% 0 mm 47 W/m2
16:08 3.2 °C 0.4 °C 1029 hPa NW 9.7 km/h 11.3 km/h 82% 0 mm 35 W/m2
16:14 3.2 °C 0.4 °C 1029 hPa NW 8 km/h 9.7 km/h 82% 0 mm 51 W/m2
16:20 3.2 °C 0.4 °C 1028.7 hPa WNW 6.4 km/h 6.4 km/h 82% 0 mm 60 W/m2
16:26 3.2 °C 0.4 °C 1029 hPa WNW 6.4 km/h 6.4 km/h 82% 0 mm 37 W/m2
16:32 3.1 °C 0.5 °C 1029 hPa WNW 6.4 km/h 6.4 km/h 83% 0 mm 40 W/m2
16:38 3.1 °C 0.3 °C 1029 hPa WNW 6.4 km/h 9.7 km/h 82% 0 mm 35 W/m2
16:44 3.1 °C 0.5 °C 1029 hPa NW 4.8 km/h 9.7 km/h 83% 0 mm 32 W/m2
16:50 3.1 °C 0.4 °C 1029 hPa NW 4.8 km/h 4.8 km/h 83% 0 mm 35 W/m2
16:56 3.1 °C 0.4 °C 1029.3 hPa WNW 4.8 km/h 6.4 km/h 83% 0 mm 26 W/m2
17:02 3.1 °C 0.4 °C 1029.7 hPa West 4.8 km/h 4.8 km/h 83% 0 mm 14 W/m2
17:08 2.9 °C 0.3 °C 1030 hPa West 6.4 km/h 12.9 km/h 83% 0 mm 11 W/m2
17:14 2.9 °C 0.3 °C 1030 hPa NW 6.4 km/h 9.7 km/h 83% 0 mm 7 W/m2
17:20 2.8 °C 0.2 °C 1030 hPa West 6.4 km/h 6.4 km/h 83% 0 mm 11 W/m2
17:26 2.8 °C 0.2 °C 1030.7 hPa WNW 6.4 km/h 9.7 km/h 83% 0 mm 7 W/m2
17:32 2.7 °C 0.1 °C 1030.7 hPa NW 4.8 km/h 8 km/h 83% 0 mm 5 W/m2
17:38 2.7 °C 0.1 °C 1030.7 hPa WNW 3.2 km/h 8 km/h 83% 0 mm 0 W/m2
17:44 2.7 °C 0.1 °C 1031 hPa West 3.2 km/h 6.4 km/h 83% 0 mm 0 W/m2
17:50 2.7 °C 0.1 °C 1031 hPa WNW 4.8 km/h 4.8 km/h 83% 0 mm 0 W/m2
17:56 2.7 °C 0.1 °C 1031 hPa NW 4.8 km/h 4.8 km/h 83% 0 mm 0 W/m2
18:02 2.7 °C -0.1 °C 1031 hPa West 3.2 km/h 3.2 km/h 82% 0 mm 0 W/m2
18:08 2.7 °C -0.1 °C 1031.4 hPa WNW 3.2 km/h 4.8 km/h 82% 0 mm 0 W/m2
18:14 2.7 °C -0.1 °C 1031.4 hPa WNW 3.2 km/h 3.2 km/h 82% 0 mm 0 W/m2
18:20 2.6 °C -0.2 °C 1031.7 hPa WNW 1.6 km/h 3.2 km/h 82% 0 mm 0 W/m2
18:26 2.6 °C -0.2 °C 1031.7 hPa WSW 3.2 km/h 3.2 km/h 82% 0 mm 0 W/m2
18:32 2.6 °C -0.4 °C 1031.7 hPa NW 3.2 km/h 8 km/h 81% 0 mm 0 W/m2
18:38 2.5 °C -0.4 °C 1031.7 hPa WNW 4.8 km/h 8 km/h 81% 0 mm 0 W/m2
18:44 2.5 °C -0.6 °C 1032.1 hPa WNW 4.8 km/h 4.8 km/h 80% 0 mm 0 W/m2
18:50 2.4 °C -0.7 °C 1032.1 hPa WNW 4.8 km/h 6.4 km/h 80% 0 mm 0 W/m2
18:56 2.4 °C -0.7 °C 1032.4 hPa West 4.8 km/h 6.4 km/h 80% 0 mm 0 W/m2
19:02 2.4 °C -0.7 °C 1032.4 hPa WNW 4.8 km/h 4.8 km/h 80% 0 mm 0 W/m2
19:08 2.3 °C -0.6 °C 1032.4 hPa WNW 3.2 km/h 4.8 km/h 81% 0 mm 0 W/m2
19:14 2.3 °C -0.8 °C 1032.7 hPa West 4.8 km/h 8 km/h 80% 0 mm 0 W/m2
19:20 2.2 °C -0.9 °C 1032.4 hPa WNW 4.8 km/h 4.8 km/h 80% 0 mm 0 W/m2
19:26 2.2 °C -0.7 °C 1032.4 hPa WNW 3.2 km/h 6.4 km/h 81% 0 mm 0 W/m2
19:32 2.2 °C -0.9 °C 1032.4 hPa West 4.8 km/h 4.8 km/h 80% 0 mm 0 W/m2
19:38 2.2 °C -0.9 °C 1032.7 hPa WNW 3.2 km/h 8 km/h 80% 0 mm 0 W/m2
19:44 2.1 °C -0.8 °C 1032.7 hPa WNW 1.6 km/h 4.8 km/h 81% 0 mm 0 W/m2
19:50 2.1 °C -0.8 °C 1033.1 hPa WNW 1.6 km/h 1.6 km/h 81% 0 mm 0 W/m2
19:56 2.2 °C -0.8 °C 1033.1 hPa WNW 1.6 km/h 1.6 km/h 81% 0 mm 0 W/m2
20:02 2.2 °C -0.8 °C 1033.4 hPa Calm   3.2 km/h 81% 0 mm 0 W/m2
20:08 2.2 °C -0.8 °C 1033.4 hPa WNW 1.6 km/h 3.2 km/h 81% 0 mm 0 W/m2
20:14 2.1 °C -0.8 °C 1033.4 hPa WNW 1.6 km/h 4.8 km/h 81% 0 mm 0 W/m2
20:20 2.1 °C -0.8 °C 1033.4 hPa West 3.2 km/h 3.2 km/h 81% 0 mm 0 W/m2
20:26 2.1 °C -0.9 °C 1033.4 hPa NW 3.2 km/h 4.8 km/h 81% 0 mm 0 W/m2
20:32 2.1 °C -1.1 °C 1033.4 hPa WNW 3.2 km/h 3.2 km/h 80% 0 mm 0 W/m2
20:38 2.1 °C -1.1 °C 1033.4 hPa WNW 1.6 km/h 3.2 km/h 80% 0 mm 0 W/m2
20:44 2 °C -1.1 °C 1033.4 hPa NW 1.6 km/h 1.6 km/h 80% 0 mm 0 W/m2
20:50 1.9 °C -1.2 °C 1033.4 hPa NW 1.6 km/h 1.6 km/h 80% 0 mm 0 W/m2
20:56 1.9 °C -1.2 °C 1033.4 hPa NW 1.6 km/h 4.8 km/h 80% 0 mm 0 W/m2
21:02 1.9 °C -1.2 °C 1033.4 hPa NW 1.6 km/h 1.6 km/h 80% 0 mm 0 W/m2
21:08 1.9 °C -1.2 °C 1033.7 hPa NW 1.6 km/h 6.4 km/h 80% 0 mm 0 W/m2
21:14 1.8 °C -1.3 °C 1033.7 hPa WNW 3.2 km/h 4.8 km/h 80% 0 mm 0 W/m2
21:20 1.8 °C -1.3 °C 1033.7 hPa WNW 3.2 km/h 3.2 km/h 80% 0 mm 0 W/m2
21:26 1.8 °C -1.3 °C 1034.1 hPa WNW 3.2 km/h 4.8 km/h 80% 0 mm 0 W/m2
21:32 1.8 °C -1.5 °C 1034.4 hPa West 3.2 km/h 4.8 km/h 79% 0 mm 0 W/m2
21:38 1.7 °C -1.3 °C 1034.1 hPa NNW 1.6 km/h 4.8 km/h 80% 0 mm 0 W/m2
21:44 1.7 °C -1.6 °C 1034.1 hPa NW 3.2 km/h 6.4 km/h 79% 0 mm 0 W/m2
21:50 1.7 °C -1.6 °C 1034.1 hPa WNW 3.2 km/h 6.4 km/h 79% 0 mm 0 W/m2
21:56 1.7 °C -1.6 °C 1034.4 hPa NW 4.8 km/h 6.4 km/h 79% 0 mm 0 W/m2
22:02 1.7 °C -1.6 °C 1034.4 hPa NW 3.2 km/h 6.4 km/h 79% 0 mm 0 W/m2
22:08 1.7 °C -1.6 °C 1034.4 hPa NW 3.2 km/h 6.4 km/h 79% 0 mm 0 W/m2
22:14 1.7 °C -1.6 °C 1034.4 hPa NW 3.2 km/h 4.8 km/h 79% 0 mm 0 W/m2
22:20 1.6 °C -1.7 °C 1034.4 hPa West 3.2 km/h 4.8 km/h 79% 0 mm 0 W/m2
22:26 1.6 °C -1.7 °C 1034.4 hPa WNW 3.2 km/h 4.8 km/h 79% 0 mm 0 W/m2
22:32 1.6 °C -1.7 °C 1034.4 hPa WNW 3.2 km/h 3.2 km/h 79% 0 mm 0 W/m2
22:38 1.5 °C -1.7 °C 1034.4 hPa WNW 1.6 km/h 3.2 km/h 79% 0 mm 0 W/m2
22:44 1.4 °C -1.8 °C 1034.4 hPa WNW 1.6 km/h 3.2 km/h 79% 0 mm 0 W/m2
22:50 1.4 °C -1.8 °C 1034.4 hPa WNW 1.6 km/h 1.6 km/h 79% 0 mm 0 W/m2
22:56 1.3 °C -1.7 °C 1034.4 hPa Calm   3.2 km/h 80% 0 mm 0 W/m2
23:02 1.3 °C -1.8 °C 1034.8 hPa WNW 1.6 km/h 3.2 km/h 80% 0 mm 0 W/m2
23:08 1.2 °C -1.8 °C 1034.8 hPa WNW 1.6 km/h 3.2 km/h 80% 0 mm 0 W/m2
23:14 1.2 °C -1.9 °C 1034.8 hPa WNW 1.6 km/h 3.2 km/h 80% 0 mm 0 W/m2
23:20 1.1 °C -1.9 °C 1034.8 hPa WNW 1.6 km/h 3.2 km/h 80% 0 mm 0 W/m2
23:26 1 °C -1.9 °C 1034.8 hPa WNW 1.6 km/h 3.2 km/h 81% 0 mm 0 W/m2
23:32 0.9 °C -1.9 °C 1034.8 hPa WNW 1.6 km/h 3.2 km/h 81% 0 mm 0 W/m2
23:38 0.9 °C -2 °C 1034.8 hPa WNW 1.6 km/h 3.2 km/h 81% 0 mm 0 W/m2
23:44 0.8 °C -2.1 °C 1034.8 hPa WNW 1.6 km/h 1.6 km/h 81% 0 mm 0 W/m2
23:50 0.8 °C -2.1 °C 1035.1 hPa WNW 1.6 km/h 1.6 km/h 81% 0 mm 0 W/m2
23:56 0.8 °C -2.1 °C 1035.1 hPa WNW 1.6 km/h 1.6 km/h 81% 0 mm 0 W/m2
Country Meadow, Clay, NY, USA
Compliments of Weather Underground - 2 mb